Location: Unspecified
(0.0000°N, 0.0000°E)
Time: 10:13:02
(UTC+02:00)

CZ-4B R/B - Visible Passes

Search period start: 21 August 2014 00:00
Search period end: 31 August 2014 00:00
Orbit: 494 x 677 km, 97.6° (Epoch: 20 August)

Date Brightness Start Highest point End Pass type
(mag) Time Alt. Az. Time Alt. Az. Time Alt. Az.
21 Aug 5.6 06:05:14 10° N 06:05:29 12° N 06:05:29 12° N visible
22 Aug 5.6 06:11:55 10° N 06:12:10 11° N 06:12:10 11° N visible
23 Aug 5.6 06:18:39 10° NNW 06:18:50 11° NNW 06:18:50 11° NNW visible
24 Aug 5.6 06:25:26 10° NNW 06:25:31 10° NNW 06:25:31 10° NNW visible
